When you browse on this site, cookies collect data to enhance your experience and personalize the content and advertising you see.
Visit our Privacy Policy to learn more. By continuing to use the site, you agree to this use of cookies and data.
  • în România
  • Lista ţărilor
  • Pe 7 zile
  • Temperatura apei
  • Hartă satelitară
  • Meteo pe hartă
  • Widget-uri
  • user-avatar
    Intrare

    Meteo pe oră la Acerno

    Astăzi, 16 Februarie, Sâmbătă

    Timp Temperatura Precipitaţii Vânt Presiune Umiditate
    00:00 -2°C° 0 mm 2 m/s 679 mmHg 86%
    01:00 -2°C° 0 mm 2 m/s 679 mmHg 85%
    02:00 -2°C° 0 mm 2 m/s 679 mmHg 85%
    03:00 -2°C° 0 mm 2 m/s 679 mmHg 84%
    04:00 -3°C° 0 mm 2 m/s 679 mmHg 84%
    05:00 -3°C° 0 mm 2 m/s 679 mmHg 84%
    06:00 -3°C° 0 mm 2 m/s 679 mmHg 83%
    07:00 -3°C° 0 mm 2 m/s 680 mmHg 83%
    08:00 -1°C° 0 mm 2 m/s 680 mmHg 77%
    09:00 +2°C° 0 mm 2 m/s 681 mmHg 70%
    10:00 +3°C° 0 mm 3 m/s 682 mmHg 64%
    11:00 +4°C° 0 mm 3 m/s 682 mmHg 60%
    12:00 +6°C° 0 mm 2 m/s 683 mmHg 56%
    13:00 +7°C° 0 mm 2 m/s 683 mmHg 53%
    14:00 +7°C° 0 mm 2 m/s 683 mmHg 54%
    15:00 +7°C° 0 mm 2 m/s 682 mmHg 56%
    16:00 +7°C° 0 mm 2 m/s 682 mmHg 57%
    17:00 +6°C° 0 mm 1 m/s 682 mmHg 64%
    18:00 +4°C° 0 mm 1 m/s 682 mmHg 71%
    19:00 +3°C° 0 mm 1 m/s 681 mmHg 78%
    20:00 +2°C° 0 mm 1 m/s 681 mmHg 79%
    21:00 +2°C° 0 mm 1 m/s 681 mmHg 80%
    22:00 +1°C° 0 mm 1 m/s 681 mmHg 81%
    23:00 +1°C° 0 mm 1 m/s 681 mmHg 78%

    Mâine, 17 Februarie, Duminică

    Timp Temperatura Precipitaţii Vânt Presiune Umiditate
    00:00 +1°C° 0 mm 1 m/s 681 mmHg 75%
    01:00 +1°C° 0 mm 1 m/s 681 mmHg 72%
    02:00 0°C° 0 mm 1 m/s 680 mmHg 67%
    03:00 0°C° 0 mm 1 m/s 680 mmHg 62%
    04:00 0°C° 0 mm 1 m/s 680 mmHg 58%
    05:00 0°C° 0 mm 1 m/s 680 mmHg 55%
    06:00 0°C° 0 mm 1 m/s 680 mmHg 52%
    07:00 0°C° 0 mm 1 m/s 680 mmHg 49%
    08:00 +3°C° 0 mm 1 m/s 681 mmHg 46%
    09:00 +4°C° 0 mm 0 m/s 682 mmHg 42%
    10:00 +7°C° 0 mm 0 m/s 682 mmHg 39%
    11:00 +8°C° 0 mm 1 m/s 682 mmHg 39%
    12:00 +9°C° 0 mm 1 m/s 682 mmHg 39%
    13:00 +9°C° 0 mm 2 m/s 682 mmHg 39%
    14:00 +10°C° 0 mm 1 m/s 682 mmHg 43%
    15:00 +10°C° 0 mm 1 m/s 682 mmHg 47%
    16:00 +9°C° 0 mm 1 m/s 681 mmHg 51%
    17:00 +7°C° 0 mm 1 m/s 681 mmHg 59%
    18:00 +5°C° 0 mm 1 m/s 680 mmHg 68%
    19:00 +4°C° 0 mm 1 m/s 680 mmHg 77%
    20:00 +2°C° 0 mm 0 m/s 680 mmHg 80%
    21:00 +2°C° 0 mm 0 m/s 680 mmHg 83%
    22:00 +1°C° 0 mm 0 m/s 680 mmHg 85%
    23:00 +1°C° 0 mm 0 m/s 679 mmHg 87%

    Poimâine, 18 Februarie, Luni

    Timp Temperatura Precipitaţii Vânt Presiune Umiditate
    00:00 +1°C° 0 mm 0 m/s 679 mmHg 88%
    01:00 +1°C° 0 mm 0 m/s 679 mmHg 90%
    02:00 0°C° 0 mm 0 m/s 679 mmHg 91%
    03:00 0°C° 0 mm 0 m/s 678 mmHg 91%
    04:00 0°C° 0 mm 0 m/s 678 mmHg 92%
    05:00 0°C° 0 mm 0 m/s 678 mmHg 92%
    06:00 +1°C° 0 mm 1 m/s 678 mmHg 92%
    07:00 +1°C° 0 mm 1 m/s 678 mmHg 92%
    08:00 +3°C° 0 mm 1 m/s 679 mmHg 84%
    09:00 +5°C° 0 mm 1 m/s 679 mmHg 75%
    10:00 +7°C° 0 mm 1 m/s 680 mmHg 67%
    11:00 +8°C° 0 mm 1 m/s 680 mmHg 63%
    12:00 +8°C° 0 mm 2 m/s 680 mmHg 58%
    13:00 +9°C° 0 mm 2 m/s 680 mmHg 54%
    14:00 +9°C° 0 mm 2 m/s 680 mmHg 56%
    15:00 +8°C° 0 mm 2 m/s 680 mmHg 58%
    16:00 +8°C° 0 mm 2 m/s 679 mmHg 60%
    17:00 +7°C° 0 mm 1 m/s 679 mmHg 67%
    18:00 +5°C° 0 mm 1 m/s 678 mmHg 74%
    19:00 +4°C° 0 mm 1 m/s 678 mmHg 81%
    20:00 +3°C° 0 mm 1 m/s 678 mmHg 83%
    21:00 +2°C° 0 mm 0 m/s 678 mmHg 84%
    22:00 +2°C° 0 mm 0 m/s 678 mmHg 85%
    23:00 +1°C° 0 mm 0 m/s 678 mmHg 86%

    19 Februarie, Marţi

    Timp Temperatura Precipitaţii Vânt Presiune Umiditate
    00:00 +1°C° 0 mm 0 m/s 678 mmHg 87%
    01:00 +1°C° 0 mm 0 m/s 678 mmHg 88%
    02:00 0°C° 0 mm 0 m/s 678 mmHg 88%
    03:00 0°C° 0 mm 0 m/s 677 mmHg 89%
    04:00 0°C° 0 mm 0 m/s 677 mmHg 89%
    05:00 0°C° 0 mm 0 m/s 677 mmHg 89%
    06:00 0°C° 0 mm 0 m/s 677 mmHg 89%
    07:00 0°C° 0 mm 1 m/s 677 mmHg 89%
    08:00 +3°C° 0 mm 1 m/s 678 mmHg 81%
    09:00 +5°C° 0 mm 1 m/s 679 mmHg 73%
    10:00 +7°C° 0 mm 1 m/s 680 mmHg 64%
    11:00 +8°C° 0 mm 1 m/s 680 mmHg 59%
    12:00 +8°C° 0 mm 2 m/s 680 mmHg 55%
    13:00 +9°C° 0 mm 2 m/s 680 mmHg 50%
    14:00 +8°C° 0 mm 2 m/s 679 mmHg 52%
    15:00 +8°C° 0 mm 2 m/s 679 mmHg 54%
    16:00 +8°C° 0 mm 2 m/s 679 mmHg 56%
    17:00 +7°C° 0 mm 1 m/s 679 mmHg 64%
    18:00 +5°C° 0 mm 1 m/s 678 mmHg 72%
    19:00 +3°C° 0 mm 1 m/s 678 mmHg 80%
    20:00 +2°C° 0 mm 0 m/s 678 mmHg 81%
    21:00 +2°C° 0 mm 0 m/s 678 mmHg 83%
    22:00 +1°C° 0 mm 0 m/s 678 mmHg 84%
    23:00 +1°C° 0 mm 0 m/s 678 mmHg 84%

    20 Februarie, Miercuri

    Timp Temperatura Precipitaţii Vânt Presiune Umiditate
    00:00 +1°C° 0 mm 0 m/s 678 mmHg 85%
    01:00 0°C° 0 mm 0 m/s 678 mmHg 85%
    02:00 0°C° 0 mm 0 m/s 678 mmHg 85%
    03:00 +1°C° 0 mm 1 m/s 677 mmHg 84%
    04:00 +1°C° 0 mm 1 m/s 677 mmHg 83%
    05:00 +1°C° 0 mm 1 m/s 677 mmHg 80%
    06:00 +1°C° 0 mm 1 m/s 677 mmHg 77%
    07:00 +1°C° 0 mm 1 m/s 678 mmHg 73%
    08:00 +2°C° 0 mm 0 m/s 679 mmHg 64%
    09:00 +5°C° 0 mm 0 m/s 680 mmHg 54%
    10:00 +7°C° 0 mm 0 m/s 681 mmHg 45%
    11:00 +8°C° 0 mm 0 m/s 681 mmHg 42%
    12:00 +10°C° 0 mm 1 m/s 681 mmHg 39%
    13:00 +11°C° 0 mm 1 m/s 681 mmHg 36%
    14:00 +11°C° 0 mm 1 m/s 681 mmHg 38%
    15:00 +11°C° 0 mm 1 m/s 681 mmHg 40%
    16:00 +10°C° 0 mm 1 m/s 680 mmHg 42%
    17:00 +8°C° 0 mm 1 m/s 680 mmHg 50%
    18:00 +7°C° 0 mm 1 m/s 680 mmHg 59%
    19:00 +5°C° 0 mm 1 m/s 679 mmHg 68%
    20:00 +4°C° 0 mm 1 m/s 680 mmHg 72%
    21:00 +4°C° 0 mm 1 m/s 680 mmHg 76%
    22:00 +4°C° 0 mm 1 m/s 680 mmHg 80%
    23:00 +3°C° 0 mm 1 m/s 680 mmHg 81%

    21 Februarie, Joi

    Timp Temperatura Precipitaţii Vânt Presiune Umiditate
    00:00 +3°C° 0 mm 1 m/s 680 mmHg 82%
    01:00 +3°C° 0 mm 1 m/s 679 mmHg 83%
    02:00 +3°C° 0 mm 1 m/s 679 mmHg 84%
    03:00 +3°C° 0 mm 1 m/s 679 mmHg 85%
    04:00 +2°C° 0 mm 2 m/s 679 mmHg 85%
    05:00 +2°C° 0 mm 1 m/s 679 mmHg 86%
    06:00 +2°C° 0 mm 1 m/s 679 mmHg 87%
    07:00 +2°C° 0 mm 1 m/s 679 mmHg 87%
    08:00 +4°C° 0 mm 1 m/s 680 mmHg 79%
    09:00 +6°C° 0 mm 1 m/s 681 mmHg 70%
    10:00 +8°C° 0 mm 0 m/s 682 mmHg 62%
    11:00 +10°C° 0 mm 1 m/s 682 mmHg 57%
    12:00 +11°C° 0 mm 1 m/s 682 mmHg 53%
    13:00 +12°C° 0 mm 1 m/s 682 mmHg 49%
    14:00 +11°C° 0 mm 1 m/s 681 mmHg 49%
    15:00 +11°C° 0 mm 1 m/s 681 mmHg 50%
    16:00 +11°C° 0 mm 1 m/s 681 mmHg 51%
    17:00 +9°C° 0 mm 1 m/s 680 mmHg 59%
    18:00 +7°C° 0 mm 1 m/s 680 mmHg 67%
    19:00 +4°C° 0 mm 0 m/s 680 mmHg 74%
    20:00 +4°C° 0 mm 0 m/s 680 mmHg 76%
    21:00 +3°C° 0 mm 0 m/s 680 mmHg 78%
    22:00 +3°C° 0 mm 0 m/s 680 mmHg 80%
    23:00 +3°C° 0 mm 0 m/s 680 mmHg 81%
    Arată mai mult